DW1196 Weather Reports


time (UTC)temp
C
wind
direction
speed
KPH
gust
KPH
rain 1hr
cm
rain 24hr
cm
rain mn
cm
humidity
%
barometer
mb
20260509090104 15 99 1.6 3.2 0.00 0.00 0.00 73 1026.2
20260509085605 16 99 1.6 4.8 0.00 0.00 0.00 72 1026.1
20260509085103 16 99 1.6 4.8 0.00 0.00 0.00 72 1026.0
20260509084604 16 99 1.6 3.2 0.00 0.00 0.00 72 1026.0
20260509084104 16 99 0.0 0.0 0.00 0.00 0.00 71 1025.9
20260509083604 16 99 0.0 1.6 0.00 0.00 0.00 71 1025.7
20260509083104 16 99 1.6 3.2 0.00 0.00 0.00 70 1025.6
20260509082603 16 99 1.6 3.2 0.00 0.00 0.00 70 1025.6
20260509081104 16 99 1.6 4.8 0.00 0.00 0.00 69 1025.3
20260509080604 17 99 1.6 4.8 0.00 0.00 0.00 68 1025.3
20260509080104 17 99 0.0 1.6 0.00 0.00 0.00 68 1025.2
20260509075104 17 99 1.6 4.8 0.00 0.00 0.00 68 1025.1
20260509074604 17 99 3.2 4.8 0.00 0.00 0.00 67 1025.0
20260509074104 17 99 1.6 3.2 0.00 0.00 0.00 67 1025.0
20260509073605 17 99 1.6 3.2 0.00 0.00 0.00 67 1025.0
20260509073104 17 99 1.6 4.8 0.00 0.00 0.00 66 1024.9
20260509072604 17 99 1.6 4.8 0.00 0.00 0.00 66 1024.9
20260509072104 17 99 1.6 4.8 0.00 0.00 0.00 66 1024.9
20260509071104 17 106 4.8 11.3 0.00 0.00 0.00 65 1024.8
20260509070604 17 105 6.4 11.3 0.00 0.00 0.00 64 1024.7
20260509070104 18 108 8.0 14.5 0.00 0.00 0.00 64 1024.7
20260509065603 18 109 8.0 14.5 0.00 0.00 0.00 63 1024.7
20260509065104 18 106 4.8 12.9 0.00 0.00 0.00 63 1024.6
20260509064603 18 112 9.7 14.5 0.00 0.00 0.00 62 1024.6
20260509064103 18 106 9.7 16.1 0.00 0.00 0.00 62 1024.5
20260509063603 18 105 12.9 20.9 0.00 0.00 0.00 62 1024.4
20260509062603 18 116 8.0 12.9 0.00 0.00 0.00 62 1024.4
20260509062103 18 88 8.0 19.3 0.00 0.00 0.00 61 1024.3
20260509061604 19 112 11.3 19.3 0.00 0.00 0.00 61 1024.3
20260509061103 19 83 9.7 19.3 0.00 0.00 0.00 61 1024.2
20260509060603 19 82 12.9 19.3 0.00 0.00 0.00 60 1024.2
20260509060103 19 92 12.9 19.3 0.00 0.00 0.00 60 1024.0
20260509055603 19 107 12.9 20.9 0.00 0.00 0.00 59 1024.0
20260509054603 20 98 11.3 22.5 0.00 0.00 0.00 58 1023.9
20260509053604 20 121 11.3 19.3 0.00 0.00 0.00 57 1023.8
20260509053104 20 90 11.3 19.3 0.00 0.00 0.00 57 1023.8
20260509052104 20 70 11.3 20.9 0.00 0.00 0.00 57 1023.7
20260509051604 20 78 11.3 20.9 0.00 0.00 0.00 56 1023.7
20260509051104 20 86 14.5 20.9 0.00 0.00 0.00 56 1023.7
20260509050604 20 99 14.5 19.3 0.00 0.00 0.00 56 1023.7
20260509045604 21 84 16.1 22.5 0.00 0.00 0.00 55 1023.6
20260509043604 21 77 9.7 19.3 0.00 0.00 0.00 54 1023.5
20260509043104 21 83 14.5 19.3 0.00 0.00 0.00 53 1023.5
20260509042604 21 70 8.0 14.5 0.00 0.00 0.00 53 1023.5
20260509042104 21 290 1.6 4.8 0.00 0.00 0.00 47 1023.5
20260509041604 22 290 3.2 9.7 0.00 0.00 0.00 47 1023.4
20260509041104 22 273 4.8 11.3 0.00 0.00 0.00 47 1023.4
20260509040604 22 271 4.8 12.9 0.00 0.00 0.00 46 1023.4
20260509040104 22 295 3.2 9.7 0.00 0.00 0.00 48 1023.4
20260509035605 21 295 3.2 11.3 0.00 0.00 0.00 48 1023.5
20260509034604 21 294 9.7 12.9 0.00 0.00 0.00 47 1023.5
20260509033103 22 271 4.8 11.3 0.00 0.00 0.00 47 1023.6
20260509032604 21 244 1.6 4.8 0.00 0.00 0.00 48 1023.6
20260509031604 21 39 4.8 8.0 0.00 0.00 0.00 48 1023.7
20260509031104 21 336 1.6 11.3 0.00 0.00 0.00 47 1023.7
20260509030605 21 312 4.8 12.9 0.00 0.00 0.00 48 1023.8
20260509030104 21 255 3.2 9.7 0.00 0.00 0.00 48 1023.9
20260509025604 21 289 4.8 11.3 0.00 0.00 0.00 48 1023.9
20260509025104 21 304 8.0 16.1 0.00 0.00 0.00 48 1024.0
20260509024604 21 292 4.8 11.3 0.00 0.00 0.00 48 1024.0
20260509024104 21 291 4.8 11.3 0.00 0.00 0.00 48 1024.1
20260509023604 21 290 1.6 4.8 0.00 0.00 0.00 48 1024.1
20260509023104 21 264 1.6 4.8 0.00 0.00 0.00 48 1024.2
20260509022604 21 264 1.6 8.0 0.00 0.00 0.00 48 1024.3
20260509022104 20 242 4.8 11.3 0.00 0.00 0.00 49 1024.3
20260509021604 21 250 8.0 11.3 0.00 0.00 0.00 49 1024.5
20260509020104 20 271 8.0 16.1 0.00 0.00 0.00 49 1024.9
20260509015604 20 258 3.2 12.9 0.00 0.00 0.00 49 1025.0
20260509015104 20 271 6.4 14.5 0.00 0.00 0.00 50 1025.0
20260509013604 20 135 3.2 12.9 0.00 0.00 0.00 51 1025.1
20260509013104 20 247 4.8 12.9 0.00 0.00 0.00 51 1025.2
20260509012604 20 274 4.8 11.3 0.00 0.00 0.00 52 1025.2
20260509011604 20 282 3.2 9.7 0.00 0.00 0.00 53 1025.2
20260509010604 18 241 4.8 12.9 0.00 0.00 0.00 55 1025.3
20260509005104 19 178 4.8 11.3 0.00 0.00 0.00 56 1025.7
20260509004603 19 173 3.2 8.0 0.00 0.00 0.00 56 1025.6
20260509004104 18 299 4.8 11.3 0.00 0.00 0.00 57 1025.7
20260509002604 18 298 6.4 11.3 0.00 0.00 0.00 58 1025.8
20260509002104 18 290 1.6 12.9 0.00 0.00 0.00 61 1025.8
20260509001604 17 273 8.0 14.5 0.00 0.00 0.00 61 1025.8
20260509001104 17 253 9.7 19.3 0.00 0.00 0.00 60 1025.7
20260509000604 17 243 4.8 12.9 0.00 0.00 0.00 61 1025.9
20260509000103 17 257 4.8 12.9 0.00 0.00 0.00 61 1025.9
20260508235104 17 239 4.8 11.3 0.00 0.00 0.00 64 1026.0
20260508234604 17 290 8.0 16.1 0.00 0.00 0.00 65 1026.0
20260508234104 16 290 8.0 14.5 0.00 0.00 0.00 66 1026.0
20260508233104 16 282 8.0 12.9 0.00 0.00 0.00 67 1026.0
20260508232604 16 265 3.2 12.9 0.00 0.00 0.00 67 1026.0
20260508232104 16 293 8.0 12.9 0.00 0.00 0.00 67 1025.9
20260508231604 15 292 8.0 12.9 0.00 0.00 0.00 69 1026.0
20260508230604 15 286 6.4 12.9 0.00 0.00 0.00 70 1026.0
20260508230105 15 296 6.4 12.9 0.00 0.00 0.00 71 1026.0
20260508225604 15 305 6.4 9.7 0.00 0.00 0.00 70 1026.0
20260508225104 15 303 4.8 9.7 0.00 0.00 0.00 72 1026.0
20260508223604 14 290 1.6 4.8 0.00 0.00 0.00 73 1026.0
20260508223104 13 290 3.2 9.7 0.00 0.00 0.00 74 1026.0
20260508222603 13 302 4.8 9.7 0.00 0.00 0.00 75 1026.0
20260508222104 13 301 1.6 4.8 0.00 0.00 0.00 75 1025.9
20260508221604 13 301 3.2 4.8 0.00 0.00 0.00 76 1025.8
20260508221104 12 251 3.2 4.8 0.00 0.00 0.00 77 1025.9
20260508220604 12 289 4.8 8.0 0.00 0.00 0.00 77 1025.8
20260508220104 12 299 4.8 8.0 0.00 0.00 0.00 78 1025.8
20260508215604 12 294 4.8 8.0 0.00 0.00 0.00 79 1025.7
20260508215104 11 294 4.8 8.0 0.00 0.00 0.00 79 1025.6
20260508214604 11 271 3.2 4.8 0.00 0.00 0.00 80 1025.6
20260508214103 11 304 1.6 4.8 0.00 0.00 0.00 80 1025.6
20260508212604 11 319 3.2 4.8 0.00 0.00 0.00 82 1025.5
20260508212104 10 295 3.2 4.8 0.00 0.00 0.00 82 1025.4
20260508211604 10 278 1.6 4.8 0.00 0.00 0.00 82 1025.4
20260508211104 10 289 1.6 8.0 0.00 0.00 0.00 82 1025.3
20260508210604 10 290 3.2 8.0 0.00 0.00 0.00 82 1025.2
20260508210104 10 299 4.8 4.8 0.00 0.00 0.00 83 1025.2
20260508205604 10 276 1.6 4.8 0.00 0.00 0.00 82 1025.2
20260508205103 10 277 3.2 4.8 0.00 0.00 0.00 82 1025.1
20260508204103 10 324 0.0 4.8 0.00 0.00 0.00 82 1025.0
20260508203604 10 324 1.6 3.2 0.00 0.00 0.00 82 1025.0
20260508203104 10 324 0.0 3.2 0.00 0.00 0.00 82 1024.9
20260508202604 11 324 1.6 4.8 0.00 0.00 0.00 81 1024.7
20260508202104 11 316 1.6 4.8 0.00 0.00 0.00 81 1024.8
20260508201604 11 308 1.6 4.8 0.00 0.00 0.00 81 1024.6
20260508201103 11 303 3.2 9.7 0.00 0.00 0.00 80 1024.6
20260508200603 11 305 3.2 9.7 0.00 0.00 0.00 80 1024.5
20260508200104 11 299 3.2 4.8 0.00 0.00 0.00 79 1024.5
20260508195604 11 299 3.2 4.8 0.00 0.00 0.00 79 1024.4
20260508195104 12 299 3.2 4.8 0.00 0.00 0.00 78 1024.4
20260508193603 12 307 3.2 4.8 0.00 0.00 0.00 77 1023.9
20260508192604 12 305 4.8 11.3 0.00 0.00 0.00 77 1023.8
20260508192104 12 285 3.2 4.8 0.00 0.00 0.00 77 1023.7
20260508191604 12 272 4.8 9.7 0.00 0.00 0.00 77 1023.7
20260508191104 12 298 1.6 4.8 0.00 0.00 0.00 77 1023.6
20260508190603 12 298 4.8 8.0 0.00 0.00 0.00 77 1023.7
20260508190103 12 298 3.2 4.8 0.00 0.00 0.00 78 1023.7
20260508185604 12 298 3.2 4.8 0.00 0.00 0.00 78 1023.7
20260508185104 12 298 3.2 4.8 0.00 0.00 0.00 77 1023.5
20260508184104 12 298 3.2 4.8 0.00 0.00 0.00 78 1023.5
20260508183604 12 298 3.2 4.8 0.00 0.00 0.00 78 1023.4
20260508183104 12 298 3.2 4.8 0.00 0.00 0.00 78 1023.4
20260508182604 12 298 3.2 4.8 0.00 0.00 0.00 78 1023.5
20260508182104 12 298 3.2 4.8 0.00 0.00 0.00 78 1023.4
20260508181603 12 298 3.2 4.8 0.00 0.00 0.00 78 1023.3
20260508181104 12 298 1.6 3.2 0.00 0.00 0.00 78 1023.4
20260508180603 12 298 3.2 4.8 0.00 0.00 0.00 79 1023.3
20260508180104 12 298 1.6 4.8 0.00 0.00 0.00 79 1023.2
20260508175104 12 298 3.2 4.8 0.00 0.00 0.00 79 1023.2
20260508174104 11 298 3.2 9.7 0.00 0.00 0.00 79 1023.2
20260508173604 11 306 3.2 11.3 0.00 0.00 0.00 79 1023.3
20260508172604 11 343 4.8 4.8 0.00 0.00 0.00 78 1023.2
20260508171604 12 288 3.2 4.8 0.00 0.00 0.00 76 1023.1
20260508171104 12 288 0.0 1.6 0.00 0.00 0.00 76 1023.1
20260508165604 12 288 0.0 3.2 0.00 0.00 0.00 75 1023.1
20260508165104 12 288 1.6 4.8 0.00 0.00 0.00 75 1023.0
20260508164604 12 288 1.6 3.2 0.00 0.00 0.00 75 1023.0
20260508164104 12 288 1.6 8.0 0.00 0.00 0.00 74 1023.1
20260508163605 12 290 4.8 8.0 0.00 0.00 0.00 74 1022.9
20260508163104 12 278 4.8 12.9 0.00 0.00 0.00 74 1022.9
20260508162604 12 291 3.2 4.8 0.00 0.00 0.00 74 1023.0
20260508162104 12 295 3.2 4.8 0.00 0.00 0.00 74 1023.0
20260508161605 12 303 1.6 4.8 0.00 0.00 0.00 74 1022.9
20260508161104 12 268 0.0 3.2 0.00 0.00 0.00 74 1022.9
20260508160604 12 268 0.0 3.2 0.00 0.00 0.00 73 1022.8
20260508160104 12 268 0.0 3.2 0.00 0.00 0.00 73 1022.9
20260508155604 12 268 1.6 4.8 0.00 0.00 0.00 73 1022.8
20260508155103 12 268 3.2 4.8 0.00 0.00 0.00 73 1022.7
20260508154105 12 268 3.2 4.8 0.00 0.00 0.00 72 1022.8
20260508153604 13 268 1.6 4.8 0.00 0.00 0.00 72 1022.7
20260508153105 13 268 3.2 8.0 0.00 0.00 0.00 72 1022.9
20260508152104 12 300 1.6 4.8 0.00 0.00 0.00 72 1022.8
20260508151604 12 300 1.6 4.8 0.00 0.00 0.00 73 1022.9
20260508151104 12 299 4.8 8.0 0.00 0.00 0.00 73 1023.0
20260508150604 12 289 4.8 9.7 0.00 0.00 0.00 73 1022.9
20260508150104 12 296 4.8 8.0 0.00 0.00 0.00 73 1023.0
20260508145605 12 296 3.2 8.0 0.00 0.00 0.00 73 1022.9
20260508145104 12 296 3.2 4.8 0.00 0.00 0.00 73 1022.8
20260508144603 12 296 4.8 4.8 0.00 0.00 0.00 73 1022.8
20260508144104 12 282 4.8 9.7 0.00 0.00 0.00 73 1022.7
20260508143604 12 288 4.8 8.0 0.00 0.00 0.00 73 1022.7
20260508143103 12 288 4.8 9.7 0.00 0.00 0.00 73 1022.8
20260508142604 12 279 3.2 4.8 0.00 0.00 0.00 73 1022.7
20260508142104 12 275 4.8 9.7 0.00 0.00 0.00 73 1022.7
20260508141604 12 297 3.2 4.8 0.00 0.00 0.00 72 1022.8
20260508141104 12 297 3.2 4.8 0.00 0.00 0.00 72 1022.7
20260508140604 12 296 3.2 4.8 0.00 0.00 0.00 72 1022.8
20260508140104 12 276 3.2 4.8 0.00 0.00 0.00 72 1022.8
20260508135604 12 303 3.2 4.8 0.00 0.00 0.00 72 1022.6
20260508134604 13 303 0.0 3.2 0.00 0.00 0.00 71 1022.6
20260508133604 13 303 1.6 4.8 0.00 0.00 0.00 71 1022.5
20260508133104 13 303 1.6 4.8 0.00 0.00 0.00 71 1022.5
20260508132604 13 303 3.2 4.8 0.00 0.00 0.00 71 1022.5
20260508132104 13 303 4.8 8.0 0.00 0.00 0.00 71 1022.5
20260508131605 13 294 4.8 8.0 0.00 0.00 0.00 70 1022.5
20260508131104 13 282 3.2 8.0 0.00 0.00 0.00 70 1022.6
20260508130604 13 250 3.2 8.0 0.00 0.00 0.00 70 1022.6
20260508130104 13 266 3.2 8.0 0.00 0.00 0.00 70 1022.5
20260508125604 13 290 3.2 8.0 0.00 0.00 0.00 70 1022.5
20260508125104 13 290 4.8 8.0 0.00 0.00 0.00 70 1022.5
20260508124604 13 290 4.8 4.8 0.00 0.00 0.00 70 1022.6
20260508124104 13 290 3.2 8.0 0.00 0.00 0.00 70 1022.5
20260508123604 13 297 4.8 11.3 0.00 0.00 0.00 70 1022.5
20260508122604 13 252 6.4 11.3 0.00 0.00 0.00 69 1022.5
20260508121603 13 268 4.8 8.0 0.00 0.00 0.00 69 1022.5
20260508121104 13 261 3.2 8.0 0.00 0.00 0.00 69 1022.6
20260508120604 13 252 4.8 9.7 0.00 0.00 0.00 69 1022.5
20260508120103 13 261 4.8 9.7 0.00 0.00 0.00 69 1022.5
20260508115603 13 287 4.8 14.5 0.00 0.00 0.00 69 1022.6
20260508115103 13 263 6.4 14.5 0.00 0.00 0.00 68 1022.5
20260508114603 13 255 4.8 12.9 0.00 0.00 0.00 68 1022.5
20260508114103 13 257 4.8 11.3 0.00 0.00 0.00 68 1022.5
20260508113604 13 257 6.4 9.7 0.00 0.00 0.00 68 1022.4
20260508113104 14 258 4.8 11.3 0.00 0.00 0.00 68 1022.5
20260508112604 14 253 4.8 9.7 0.00 0.00 0.00 68 1022.4
20260508111605 14 263 4.8 11.3 0.00 0.00 0.00 68 1022.4
20260508111104 14 254 4.8 9.7 0.00 0.00 0.00 68 1022.5
20260508110605 14 251 4.8 9.7 0.00 0.00 0.00 68 1022.4
20260508110104 14 261 4.8 11.3 0.00 0.00 0.00 68 1022.3
20260508105604 14 256 4.8 8.0 0.00 0.00 0.00 68 1022.2
20260508105104 14 289 6.4 14.5 0.00 0.00 0.00 68 1022.1
20260508104603 14 279 6.4 12.9 0.00 0.00 0.00 67 1022.0
20260508104104 14 287 8.0 12.9 0.00 0.00 0.00 67 1022.0
20260508103603 14 288 3.2 12.9 0.00 0.00 0.00 67 1022.1
20260508102604 14 278 4.8 8.0 0.00 0.00 0.00 67 1022.0
20260508102104 14 280 3.2 4.8 0.00 0.00 0.00 67 1021.9
20260508101604 14 292 4.8 8.0 0.00 0.00 0.00 66 1021.9
20260508101104 14 258 3.2 4.8 0.00 0.00 0.00 66 1021.9
20260508100604 15 259 4.8 9.7 0.00 0.00 0.00 66 1021.9
20260508100104 15 258 4.8 9.7 0.00 0.00 0.00 66 1021.8
20260508095104 15 273 3.2 9.7 0.00 0.00 0.00 65 1021.6
20260508094604 15 283 6.4 12.9 0.00 0.00 0.00 64 1021.5
20260508094104 15 286 8.0 16.1 0.00 0.00 0.00 64 1021.5
20260508093604 15 273 6.4 16.1 0.00 0.00 0.00 64 1021.6
20260508093104 15 268 4.8 14.5 0.00 0.00 0.00 63 1021.5
20260508092104 15 291 8.0 16.1 0.00 0.00 0.00 63 1021.3
20260508091604 15 272 4.8 16.1 0.00 0.00 0.00 63 1021.1
20260508090604 15 265 4.8 20.9 0.00 0.00 0.00 63 1021.0